This is the latest recevied weather packets stored in our database for station/object N3EDS. If no packets are shown the sender has not sent any weather packets the latest 10 day(s).
| Time | Temp. | Humidity | Pressure | Rain* | Wind** | Luminosity | Snow |
|---|---|---|---|---|---|---|---|
| 1777730979 | 5° C | 82% | 1014.6 hPa | 0 mm | - | 128 W/m² | - |
| 1777730678 | 5.56° C | 78% | 1014.7 hPa | 0 mm | - | 196 W/m² | - |
| 1777730373 | 5.56° C | 80% | 1014.7 hPa | 0 mm | - | 396 W/m² | - |
| 1777730070 | 4.44° C | 79% | 1014.7 hPa | 0 mm | - | 568 W/m² | - |
| 1777729766 | 4.44° C | 82% | 1014.6 hPa | 0 mm | - | 480 W/m² | - |
| 1777729463 | 3.89° C | 82% | 1014.7 hPa | 0 mm | - | 203 W/m² | - |
| 1777729159 | 3.89° C | 83% | 1014.6 hPa | 0 mm | - | 159 W/m² | - |
| 1777728856 | 3.89° C | 84% | 1014.6 hPa | 0 mm | - | 143 W/m² | - |
| 1777728554 | 3.89° C | 84% | 1014.9 hPa | 0 mm | - | 169 W/m² | - |
| 1777728251 | 3.89° C | 86% | 1014.9 hPa | 0 mm | - | 163 W/m² | - |
| 1777727948 | 3.89° C | 84% | 1014.8 hPa | 0 mm | - | 151 W/m² | - |
| 1777727644 | 3.89° C | 85% | 1014.8 hPa | 0 mm | - | 102 W/m² | - |
| 1777727342 | 3.89° C | 85% | 1014.7 hPa | 0 mm | - | 145 W/m² | - |
| 1777727039 | 3.89° C | 87% | 1015 hPa | 0 mm | - | 195 W/m² | - |
| 1777726736 | 3.33° C | 85% | 1015.2 hPa | 0 mm | - | 164 W/m² | - |
| 1777726434 | 3.33° C | 86% | 1015 hPa | 0 mm | - | 126 W/m² | - |
| 1777726130 | 3.33° C | 89% | 1015.2 hPa | 0 mm | - | 114 W/m² | - |
| 1777725827 | 3.33° C | 87% | 1015 hPa | 0 mm | - | 123 W/m² | - |
| 1777725524 | 3.33° C | 88% | 1015.2 hPa | 0 mm | - | 113 W/m² | - |
| 1777725222 | 3.33° C | 89% | 1015 hPa | 0 mm | - | 112 W/m² | - |
| 1777724919 | 3.33° C | 88% | 1015.3 hPa | 0 mm | - | 122 W/m² | - |
| 1777724614 | 3.33° C | 91% | 1015.4 hPa | 0 mm | - | 136 W/m² | - |
| 1777724313 | 2.78° C | 92% | 1015.3 hPa | 0 mm | - | 140 W/m² | - |
| 1777724010 | 2.78° C | 91% | 1015.2 hPa | 0 mm | - | 122 W/m² | - |
| 1777723707 | 2.22° C | 92% | 1015.3 hPa | 0 mm | - | 49 W/m² | - |
* Rain latest hour (hover to see other rain measurements)
** Current wind speed in m/s (hover to see current wind gust speed)